User: anonymous   Login
Location: Unspecified
(0.0000°N, 0.0000°E)
Time: 23:24:28
(UTC+00:00)
Language:

STARLINK-3147 - Orbit

View from above orbital plane
View from above orbital plane
View from above satellite
View from above satellite

Ground track
Ground track

The orbit is defined by the following mean orbital elements,

1 49410U          26145.55872617 +.00000000 +00000-0 -20864-4 0 00005
2 49410  53.2129 244.0505 0001526  88.8125 271.3042 15.08839345    03
Epoch (UTC): 25 May 2026 13:24:33
Eccentricity: 0.0001526
inclination: 53.2129°
perigee height: 539 km
apogee height: 541 km
right ascension of ascending node: 244.0505°
argument of perigee: 88.8125°
revolutions per day: 15.08839345
mean anomaly at epoch: 271.3042°

The dashed part of the orbit path shows where the satellite is in the earth's shadow,  

DLR